Time,TemperatureF,DewpointF,PressureIn,WindDirection,WindDirectionDegrees,WindSpeedMPH,WindSpeedGustMPH,Humidity,HourlyPrecipIn,Conditions,Clouds,dailyrainin,SoftwareType,DateUTC
2013-03-03 00:02:00,33.4,3.7,30.04,SW,221,5.0,8.0,28,0.00,,,0.00,meteohub,2013-03-03 06:02:00,
2013-03-03 00:07:00,33.3,3.7,30.04,SSE,160,5.0,8.0,28,0.00,,,0.00,meteohub,2013-03-03 06:07:00,
2013-03-03 00:12:00,33.1,3.6,30.04,South,175,6.0,8.0,28,0.00,,,0.00,meteohub,2013-03-03 06:12:00,
2013-03-03 00:17:00,33.1,3.6,30.04,South,189,4.0,6.0,28,0.00,,,0.00,meteohub,2013-03-03 06:17:00,
2013-03-03 00:23:00,32.9,3.4,30.04,South,187,6.0,6.0,28,0.00,,,0.00,meteohub,2013-03-03 06:23:00,
2013-03-03 00:28:00,32.9,4.8,30.04,South,187,5.0,6.0,30,0.00,,,0.00,meteohub,2013-03-03 06:28:00,
2013-03-03 00:33:00,32.9,3.4,30.04,South,180,4.0,9.0,28,0.00,,,0.00,meteohub,2013-03-03 06:33:00,
2013-03-03 00:38:00,32.7,3.2,30.04,South,175,3.0,9.0,28,0.00,,,0.00,meteohub,2013-03-03 06:38:00,
2013-03-03 00:43:00,32.5,4.5,30.04,SSE,163,5.0,8.0,30,0.00,,,0.00,meteohub,2013-03-03 06:43:00,
2013-03-03 00:48:00,32.4,4.5,30.04,South,174,4.0,8.0,30,0.00,,,0.00,meteohub,2013-03-03 06:48:00,
2013-03-03 00:53:00,32.2,4.3,30.04,South,178,4.0,6.0,30,0.00,,,0.00,meteohub,2013-03-03 06:53:00,
2013-03-03 00:58:00,32.2,4.3,30.04,SSE,160,5.0,6.0,30,0.00,,,0.00,meteohub,2013-03-03 06:58:00,
2013-03-03 01:03:00,32.0,4.1,30.01,SSE,155,5.0,6.0,30,0.00,,,0.00,meteohub,2013-03-03 07:03:00,
2013-03-03 01:08:00,31.8,3.9,30.01,South,177,5.0,7.0,30,0.00,,,0.00,meteohub,2013-03-03 07:08:00,
2013-03-03 01:13:00,31.6,3.7,30.01,South,172,6.0,7.0,30,0.00,,,0.00,meteohub,2013-03-03 07:13:00,
2013-03-03 01:18:00,31.6,3.7,30.01,South,174,5.0,7.0,30,0.00,,,0.00,meteohub,2013-03-03 07:18:00,
2013-03-03 01:23:00,31.5,3.6,30.01,SSE,168,4.0,6.0,30,0.00,,,0.00,meteohub,2013-03-03 07:23:00,
2013-03-03 01:28:00,31.5,3.6,30.01,South,180,5.0,6.0,30,0.00,,,0.00,meteohub,2013-03-03 07:28:00,
2013-03-03 01:33:00,31.5,3.6,30.01,SSE,163,5.0,8.0,30,0.00,,,0.00,meteohub,2013-03-03 07:33:00,
2013-03-03 01:38:00,31.3,3.4,30.01,South,177,9.0,9.0,30,0.00,,,0.00,meteohub,2013-03-03 07:38:00,
2013-03-03 01:43:00,31.3,3.4,30.01,South,172,6.0,9.0,30,0.00,,,0.00,meteohub,2013-03-03 07:43:00,
2013-03-03 01:49:00,31.3,3.4,30.01,South,172,7.0,9.0,30,0.00,,,0.00,meteohub,2013-03-03 07:49:00,
2013-03-03 01:54:00,31.1,3.9,30.01,SSE,166,4.0,9.0,31,0.00,,,0.00,meteohub,2013-03-03 07:54:00,
2013-03-03 01:59:00,31.1,3.9,30.01,South,181,6.0,9.0,31,0.00,,,0.00,meteohub,2013-03-03 07:59:00,
2013-03-03 02:04:00,30.9,3.7,30.01,South,178,6.0,8.0,31,0.00,,,0.00,meteohub,2013-03-03 08:04:00,
2013-03-03 02:09:00,30.9,3.7,30.01,South,173,5.0,8.0,31,0.00,,,0.00,meteohub,2013-03-03 08:09:00,
2013-03-03 02:14:00,30.7,3.7,30.01,South,188,5.0,6.0,31,0.00,,,0.00,meteohub,2013-03-03 08:14:00,
2013-03-03 02:19:00,30.7,3.7,30.01,South,170,4.0,6.0,31,0.00,,,0.00,meteohub,2013-03-03 08:19:00,
2013-03-03 02:24:00,30.6,3.6,30.01,South,188,4.0,6.0,31,0.00,,,0.00,meteohub,2013-03-03 08:24:00,
2013-03-03 02:29:00,30.6,3.6,30.01,South,171,4.0,6.0,31,0.00,,,0.00,meteohub,2013-03-03 08:29:00,
2013-03-03 02:34:00,30.4,3.4,29.98,SSE,168,6.0,6.0,31,0.00,,,0.00,meteohub,2013-03-03 08:34:00,
2013-03-03 02:39:00,30.4,3.4,29.98,South,184,6.0,6.0,31,0.00,,,0.00,meteohub,2013-03-03 08:39:00,
2013-03-03 02:44:00,30.2,3.9,29.98,SSE,152,5.0,8.0,32,0.00,,,0.00,meteohub,2013-03-03 08:44:00,
2013-03-03 02:49:00,30.2,3.9,29.98,SSE,164,4.0,8.0,32,0.00,,,0.00,meteohub,2013-03-03 08:49:00,
2013-03-03 02:54:00,30.2,3.9,29.98,SSE,163,4.0,8.0,32,0.00,,,0.00,meteohub,2013-03-03 08:54:00,
2013-03-03 02:59:00,30.0,3.7,29.98,SSE,167,4.0,8.0,32,0.00,,,0.00,meteohub,2013-03-03 08:59:00,
2013-03-03 03:05:00,30.0,3.7,29.98,SSE,163,5.0,8.0,32,0.00,,,0.00,meteohub,2013-03-03 09:05:00,
2013-03-03 03:10:00,30.0,3.7,29.98,South,183,6.0,7.0,32,0.00,,,0.00,meteohub,2013-03-03 09:10:00,
2013-03-03 03:15:00,30.0,4.5,29.95,South,181,6.0,9.0,33,0.00,,,0.00,meteohub,2013-03-03 09:15:00,
2013-03-03 03:20:00,30.0,4.5,29.95,South,183,5.0,12.0,33,0.00,,,0.00,meteohub,2013-03-03 09:20:00,
2013-03-03 03:25:00,29.8,4.3,29.95,South,175,6.0,12.0,33,0.00,,,0.00,meteohub,2013-03-03 09:25:00,
2013-03-03 03:30:00,29.8,4.3,29.95,SSE,166,6.0,12.0,33,0.00,,,0.00,meteohub,2013-03-03 09:30:00,
2013-03-03 03:35:00,29.8,4.3,29.95,South,176,5.0,10.0,33,0.00,,,0.00,meteohub,2013-03-03 09:35:00,
2013-03-03 03:40:00,29.7,4.1,29.95,SSW,193,4.0,9.0,33,0.00,,,0.00,meteohub,2013-03-03 09:40:00,
2013-03-03 03:45:00,29.7,4.1,29.95,South,185,4.0,8.0,33,0.00,,,0.00,meteohub,2013-03-03 09:45:00,
2013-03-03 03:50:00,29.7,4.1,29.95,SSE,166,4.0,6.0,33,0.00,,,0.00,meteohub,2013-03-03 09:50:00,
2013-03-03 03:55:00,29.5,3.9,29.95,SSE,166,5.0,6.0,33,0.00,,,0.00,meteohub,2013-03-03 09:55:00,
2013-03-03 04:00:00,29.5,4.6,29.95,SSE,164,5.0,6.0,34,0.00,,,0.00,meteohub,2013-03-03 10:00:00,
2013-03-03 04:02:00,29.5,3.9,29.95,SSE,153,4.0,6.0,33,0.00,,,0.00,meteohub,2013-03-03 10:02:00,
2013-03-03 04:07:00,29.5,4.6,29.95,SSW,193,5.0,8.0,34,0.00,,,0.00,meteohub,2013-03-03 10:07:00,
2013-03-03 04:12:00,29.5,4.6,29.95,SE,146,4.0,8.0,34,0.00,,,0.00,meteohub,2013-03-03 10:12:00,
2013-03-03 04:17:00,29.5,4.6,29.95,SSE,161,6.0,8.0,34,0.00,,,0.00,meteohub,2013-03-03 10:17:00,
2013-03-03 04:22:00,29.5,4.6,29.95,South,179,6.0,8.0,34,0.00,,,0.00,meteohub,2013-03-03 10:22:00,
2013-03-03 04:27:00,29.5,4.6,29.95,SSW,197,6.0,8.0,34,0.00,,,0.00,meteohub,2013-03-03 10:27:00,
2013-03-03 04:32:00,29.3,4.5,29.95,South,181,5.0,8.0,34,0.00,,,0.00,meteohub,2013-03-03 10:32:00,
2013-03-03 04:37:00,29.3,4.5,29.95,SSE,168,6.0,8.0,34,0.00,,,0.00,meteohub,2013-03-03 10:37:00,
2013-03-03 04:42:00,29.3,5.0,29.95,South,177,4.0,8.0,35,0.00,,,0.00,meteohub,2013-03-03 10:42:00,
2013-03-03 04:47:00,29.3,5.0,29.92,SSE,160,5.0,8.0,35,0.00,,,0.00,meteohub,2013-03-03 10:47:00,
2013-03-03 04:52:00,29.1,4.8,29.92,South,176,6.0,8.0,35,0.00,,,0.00,meteohub,2013-03-03 10:52:00,
2013-03-03 04:57:00,29.1,4.8,29.92,SSE,167,3.0,6.0,35,0.00,,,0.00,meteohub,2013-03-03 10:57:00,
2013-03-03 05:02:00,29.1,4.8,29.92,SSE,165,4.0,6.0,35,0.00,,,0.00,meteohub,2013-03-03 11:02:00,
2013-03-03 05:08:00,29.1,4.8,29.92,SSE,161,4.0,6.0,35,0.00,,,0.00,meteohub,2013-03-03 11:08:00,
2013-03-03 05:13:00,29.1,4.8,29.92,SE,145,4.0,6.0,35,0.00,,,0.00,meteohub,2013-03-03 11:13:00,
2013-03-03 05:18:00,29.1,4.8,29.92,SSE,163,6.0,6.0,35,0.00,,,0.00,meteohub,2013-03-03 11:18:00,
2013-03-03 05:23:00,29.1,4.8,29.92,SSE,157,4.0,6.0,35,0.00,,,0.00,meteohub,2013-03-03 11:23:00,
2013-03-03 05:28:00,29.1,4.8,29.92,SSE,166,5.0,6.0,35,0.00,,,0.00,meteohub,2013-03-03 11:28:00,
2013-03-03 05:33:00,29.3,5.0,29.92,South,172,6.0,6.0,35,0.00,,,0.00,meteohub,2013-03-03 11:33:00,
2013-03-03 05:38:00,29.3,5.0,29.92,SSE,158,4.0,6.0,35,0.00,,,0.00,meteohub,2013-03-03 11:38:00,
2013-03-03 05:43:00,29.3,5.0,29.92,South,169,5.0,6.0,35,0.00,,,0.00,meteohub,2013-03-03 11:43:00,
2013-03-03 05:48:00,29.3,5.0,29.92,South,177,4.0,6.0,35,0.00,,,0.00,meteohub,2013-03-03 11:48:00,
2013-03-03 05:54:00,29.3,5.7,29.92,South,186,5.0,6.0,36,0.00,,,0.00,meteohub,2013-03-03 11:54:00,
2013-03-03 05:59:00,29.1,5.5,29.92,South,170,4.0,6.0,36,0.00,,,0.00,meteohub,2013-03-03 11:59:00,
2013-03-03 06:04:00,29.1,5.5,29.92,South,172,4.0,6.0,36,0.00,,,0.00,meteohub,2013-03-03 12:04:00,
2013-03-03 06:09:00,29.1,5.5,29.92,SSE,162,3.0,6.0,36,0.00,,,0.00,meteohub,2013-03-03 12:09:00,
2013-03-03 06:14:00,29.1,5.5,29.92,South,182,5.0,6.0,36,0.00,,,0.00,meteohub,2013-03-03 12:14:00,
2013-03-03 06:19:00,28.9,5.4,29.92,South,185,8.0,8.0,36,0.00,,,0.00,meteohub,2013-03-03 12:19:00,
2013-03-03 06:24:00,28.9,5.4,29.92,South,178,6.0,6.0,36,0.00,,,0.00,meteohub,2013-03-03 12:24:00,
2013-03-03 06:29:00,28.9,5.4,29.92,SSE,162,6.0,8.0,36,0.00,,,0.00,meteohub,2013-03-03 12:29:00,
2013-03-03 06:34:00,28.9,5.4,29.92,SSE,160,3.0,8.0,36,0.00,,,0.00,meteohub,2013-03-03 12:34:00,
2013-03-03 06:39:00,28.9,5.4,29.92,SSE,167,3.0,8.0,36,0.00,,,0.00,meteohub,2013-03-03 12:39:00,
2013-03-03 06:44:00,28.9,5.4,29.92,SSE,164,4.0,8.0,36,0.00,,,0.00,meteohub,2013-03-03 12:44:00,
2013-03-03 06:49:00,28.9,5.4,29.92,SSE,156,4.0,6.0,36,0.00,,,0.00,meteohub,2013-03-03 12:49:00,
2013-03-03 06:55:00,28.8,5.2,29.92,SSE,149,6.0,6.0,36,0.00,,,0.00,meteohub,2013-03-03 12:55:00,
2013-03-03 07:00:00,28.8,5.2,29.92,SSE,165,5.0,6.0,36,0.00,,,0.00,meteohub,2013-03-03 13:00:00,
2013-03-03 07:05:00,28.8,5.2,29.92,SE,146,3.0,6.0,36,0.00,,,0.00,meteohub,2013-03-03 13:05:00,
2013-03-03 07:10:00,28.9,5.4,29.92,SSE,147,4.0,6.0,36,0.00,,,0.00,meteohub,2013-03-03 13:10:00,
2013-03-03 07:15:00,28.9,5.4,29.92,South,170,3.0,6.0,36,0.00,,,0.00,meteohub,2013-03-03 13:15:00,
2013-03-03 07:20:00,28.9,5.4,29.92,South,169,2.0,6.0,36,0.00,,,0.00,meteohub,2013-03-03 13:20:00,
2013-03-03 07:25:00,28.9,5.4,29.92,South,169,2.0,6.0,36,0.00,,,0.00,meteohub,2013-03-03 13:25:00,
2013-03-03 07:30:00,29.1,5.5,29.92,South,169,3.0,5.0,36,0.00,,,0.00,meteohub,2013-03-03 13:30:00,
2013-03-03 07:35:00,29.3,5.7,29.92,SSE,152,3.0,6.0,36,0.00,,,0.00,meteohub,2013-03-03 13:35:00,
2013-03-03 07:40:00,29.5,5.7,29.92,SSE,150,4.0,6.0,36,0.00,,,0.00,meteohub,2013-03-03 13:40:00,
2013-03-03 07:45:00,29.8,6.1,29.92,SSE,152,5.0,6.0,36,0.00,,,0.00,meteohub,2013-03-03 13:45:00,
2013-03-03 07:50:00,30.0,5.7,29.92,SSE,154,4.0,6.0,35,0.00,,,0.00,meteohub,2013-03-03 13:50:00,
2013-03-03 07:55:00,30.2,5.9,29.92,SSE,159,3.0,6.0,35,0.00,,,0.00,meteohub,2013-03-03 13:55:00,
2013-03-03 08:01:00,30.2,5.2,29.92,SSE,151,4.0,6.0,34,0.00,,,0.00,meteohub,2013-03-03 14:01:00,
2013-03-03 08:06:00,30.2,4.5,29.92,SSE,159,3.0,6.0,33,0.00,,,0.00,meteohub,2013-03-03 14:06:00,
2013-03-03 08:11:00,30.2,5.2,29.92,SSE,151,5.0,7.0,34,0.00,,,0.00,meteohub,2013-03-03 14:11:00,
2013-03-03 08:16:00,30.4,5.4,29.89,SSE,147,6.0,8.0,34,0.00,,,0.00,meteohub,2013-03-03 14:16:00,
2013-03-03 08:21:00,30.9,5.2,29.89,SE,146,6.0,8.0,33,0.00,,,0.00,meteohub,2013-03-03 14:21:00,
2013-03-03 08:26:00,31.1,4.6,29.89,SSE,156,6.0,8.0,32,0.00,,,0.00,meteohub,2013-03-03 14:26:00,
2013-03-03 08:31:00,31.5,5.0,29.89,SSE,153,4.0,9.0,32,0.00,,,0.00,meteohub,2013-03-03 14:31:00,
2013-03-03 08:36:00,32.0,5.5,29.89,SSE,151,5.0,9.0,32,0.00,,,0.00,meteohub,2013-03-03 14:36:00,
2013-03-03 08:41:00,32.2,5.0,29.89,SSE,155,4.0,9.0,31,0.00,,,0.00,meteohub,2013-03-03 14:41:00,
2013-03-03 08:46:00,32.5,5.2,29.89,SSE,154,8.0,10.0,31,0.00,,,0.00,meteohub,2013-03-03 14:46:00,
2013-03-03 08:51:00,32.7,5.4,29.89,South,180,6.0,10.0,31,0.00,,,0.00,meteohub,2013-03-03 14:51:00,
2013-03-03 08:56:00,33.3,5.9,29.89,South,176,6.0,10.0,31,0.00,,,0.00,meteohub,2013-03-03 14:56:00,
2013-03-03 09:01:00,34.2,5.9,29.89,SSE,147,5.0,10.0,30,0.00,,,0.00,meteohub,2013-03-03 15:01:00,
2013-03-03 09:06:00,34.5,6.3,29.89,South,177,9.0,10.0,30,0.00,,,0.00,meteohub,2013-03-03 15:06:00,
2013-03-03 09:11:00,34.0,5.7,29.89,SSE,161,6.0,10.0,30,0.00,,,0.00,meteohub,2013-03-03 15:11:00,
2013-03-03 09:16:00,34.2,5.9,29.89,South,181,6.0,10.0,30,0.00,,,0.00,meteohub,2013-03-03 15:16:00,
2013-03-03 09:22:00,34.5,6.3,29.89,SSE,160,8.0,11.0,30,0.00,,,0.00,meteohub,2013-03-03 15:22:00,
2013-03-03 09:27:00,34.5,6.3,29.89,SSE,161,8.0,11.0,30,0.00,,,0.00,meteohub,2013-03-03 15:27:00,
2013-03-03 09:32:00,34.7,6.4,29.89,South,188,9.0,10.0,30,0.00,,,0.00,meteohub,2013-03-03 15:32:00,
2013-03-03 09:37:00,34.5,6.3,29.89,SSE,159,8.0,10.0,30,0.00,,,0.00,meteohub,2013-03-03 15:37:00,
2013-03-03 09:42:00,34.5,6.3,29.89,South,189,6.0,11.0,30,0.00,,,0.00,meteohub,2013-03-03 15:42:00,
2013-03-03 09:47:00,34.5,6.3,29.86,SE,145,6.0,11.0,30,0.00,,,0.00,meteohub,2013-03-03 15:47:00,
2013-03-03 09:52:00,34.7,6.4,29.86,SSE,166,8.0,11.0,30,0.00,,,0.00,meteohub,2013-03-03 15:52:00,
2013-03-03 09:57:00,34.9,6.6,29.86,SSE,150,8.0,9.0,30,0.00,,,0.00,meteohub,2013-03-03 15:57:00,
2013-03-03 10:02:00,35.8,6.6,29.86,SE,145,5.0,9.0,29,0.00,,,0.00,meteohub,2013-03-03 16:02:00,
2013-03-03 10:07:00,36.0,6.8,29.86,SSE,153,6.0,9.0,29,0.00,,,0.00,meteohub,2013-03-03 16:07:00,
2013-03-03 10:12:00,36.7,7.3,29.86,SSE,153,6.0,10.0,29,0.00,,,0.00,meteohub,2013-03-03 16:12:00,
2013-03-03 10:17:00,37.0,6.1,29.86,SSE,156,5.0,10.0,27,0.00,,,0.00,meteohub,2013-03-03 16:17:00,
2013-03-03 10:22:00,37.0,6.1,29.86,SE,145,8.0,10.0,27,0.00,,,0.00,meteohub,2013-03-03 16:22:00,
2013-03-03 10:27:00,36.9,5.9,29.86,SSE,162,8.0,9.0,27,0.00,,,0.00,meteohub,2013-03-03 16:27:00,
2013-03-03 10:32:00,37.2,6.3,29.86,SSE,150,8.0,9.0,27,0.00,,,0.00,meteohub,2013-03-03 16:32:00,
2013-03-03 10:37:00,37.6,5.7,29.86,South,182,6.0,10.0,26,0.00,,,0.00,meteohub,2013-03-03 16:37:00,
2013-03-03 10:42:00,37.8,5.9,29.86,SE,129,3.0,10.0,26,0.00,,,0.00,meteohub,2013-03-03 16:42:00,
2013-03-03 10:47:00,37.9,6.1,29.86,SSE,161,5.0,10.0,26,0.00,,,0.00,meteohub,2013-03-03 16:47:00,
2013-03-03 10:52:00,37.8,5.9,29.86,South,169,5.0,8.0,26,0.00,,,0.00,meteohub,2013-03-03 16:52:00,
2013-03-03 10:57:00,37.9,6.1,29.86,SSE,151,6.0,9.0,26,0.00,,,0.00,meteohub,2013-03-03 16:57:00,
2013-03-03 11:02:00,38.1,6.3,29.86,SE,144,8.0,9.0,26,0.00,,,0.00,meteohub,2013-03-03 17:02:00,
2013-03-03 11:07:00,38.5,6.6,29.86,SE,138,4.0,10.0,26,0.00,,,0.00,meteohub,2013-03-03 17:07:00,
2013-03-03 11:12:00,38.8,5.2,29.86,SE,140,4.0,10.0,24,0.00,,,0.00,meteohub,2013-03-03 17:12:00,
2013-03-03 11:17:00,39.2,4.5,29.86,SE,142,4.0,8.0,23,0.00,,,0.00,meteohub,2013-03-03 17:17:00,
2013-03-03 11:22:00,39.4,4.6,29.86,SSE,154,6.0,8.0,23,0.00,,,0.00,meteohub,2013-03-03 17:22:00,
2013-03-03 11:27:00,39.4,4.6,29.86,SE,131,3.0,8.0,23,0.00,,,0.00,meteohub,2013-03-03 17:27:00,
2013-03-03 11:32:00,39.9,5.2,29.83,South,169,6.0,9.0,23,0.00,,,0.00,meteohub,2013-03-03 17:32:00,
2013-03-03 11:38:00,40.5,5.5,29.83,SSE,162,6.0,11.0,23,0.00,,,0.00,meteohub,2013-03-03 17:38:00,
2013-03-03 11:43:00,40.6,5.7,29.83,SSE,152,5.0,11.0,23,0.00,,,0.00,meteohub,2013-03-03 17:43:00,
2013-03-03 11:48:00,41.0,6.1,29.83,SSE,165,8.0,11.0,23,0.00,,,0.00,meteohub,2013-03-03 17:48:00,
2013-03-03 11:53:00,40.8,5.9,29.83,South,184,6.0,9.0,23,0.00,,,0.00,meteohub,2013-03-03 17:53:00,
2013-03-03 11:58:00,40.8,5.9,29.83,SE,135,6.0,11.0,23,0.00,,,0.00,meteohub,2013-03-03 17:58:00,
2013-03-03 12:03:00,41.0,6.1,29.83,SSE,155,6.0,11.0,23,0.00,,,0.00,meteohub,2013-03-03 18:03:00,
2013-03-03 12:08:00,41.2,6.3,29.83,SSE,158,6.0,10.0,23,0.00,,,0.00,meteohub,2013-03-03 18:08:00,
2013-03-03 12:13:00,41.2,6.3,29.83,SSE,150,8.0,10.0,23,0.00,,,0.00,meteohub,2013-03-03 18:13:00,
2013-03-03 12:18:00,41.2,6.3,29.83,SSE,165,6.0,11.0,23,0.00,,,0.00,meteohub,2013-03-03 18:18:00,
2013-03-03 12:23:00,41.4,6.3,29.83,South,169,10.0,11.0,23,0.00,,,0.00,meteohub,2013-03-03 18:23:00,
2013-03-03 12:28:00,41.4,6.3,29.83,SSE,157,8.0,12.0,23,0.00,,,0.00,meteohub,2013-03-03 18:28:00,
2013-03-03 12:33:00,41.4,6.3,29.80,SE,144,6.0,12.0,23,0.00,,,0.00,meteohub,2013-03-03 18:33:00,
2013-03-03 12:38:00,41.4,6.3,29.80,South,169,9.0,12.0,23,0.00,,,0.00,meteohub,2013-03-03 18:38:00,
2013-03-03 12:44:00,41.5,6.4,29.80,ESE,119,4.0,12.0,23,0.00,,,0.00,meteohub,2013-03-03 18:44:00,
2013-03-03 12:49:00,41.7,6.6,29.80,SSE,157,4.0,12.0,23,0.00,,,0.00,meteohub,2013-03-03 18:49:00,
2013-03-03 12:54:00,41.7,6.6,29.80,SE,144,11.0,12.0,23,0.00,,,0.00,meteohub,2013-03-03 18:54:00,
2013-03-03 12:59:00,41.9,6.8,29.80,SE,143,8.0,11.0,23,0.00,,,0.00,meteohub,2013-03-03 18:59:00,
2013-03-03 13:04:00,42.8,7.5,29.80,SE,142,8.0,11.0,23,0.00,,,0.00,meteohub,2013-03-03 19:04:00,
2013-03-03 13:09:00,43.2,7.9,29.80,SE,146,7.0,11.0,23,0.00,,,0.00,meteohub,2013-03-03 19:09:00,
2013-03-03 13:14:00,43.2,7.9,29.80,SSE,164,8.0,11.0,23,0.00,,,0.00,meteohub,2013-03-03 19:14:00,
2013-03-03 13:19:00,43.0,7.7,29.80,SSE,158,11.0,13.0,23,0.00,,,0.00,meteohub,2013-03-03 19:19:00,
2013-03-03 13:24:00,42.8,7.5,29.80,SE,146,6.0,13.0,23,0.00,,,0.00,meteohub,2013-03-03 19:24:00,
2013-03-03 13:29:00,43.3,8.1,29.77,SE,146,8.0,13.0,23,0.00,,,0.00,meteohub,2013-03-03 19:29:00,
2013-03-03 13:34:00,44.1,8.6,29.77,SE,145,8.0,13.0,23,0.00,,,0.00,meteohub,2013-03-03 19:34:00,
2013-03-03 13:39:00,44.4,9.0,29.77,SE,133,4.0,11.0,23,0.00,,,0.00,meteohub,2013-03-03 19:39:00,
2013-03-03 13:44:00,44.6,8.1,29.77,SSE,160,8.0,11.0,22,0.00,,,0.00,meteohub,2013-03-03 19:44:00,
2013-03-03 13:50:00,45.0,8.4,29.77,SSE,154,8.0,11.0,22,0.00,,,0.00,meteohub,2013-03-03 19:50:00,
2013-03-03 13:55:00,45.3,8.8,29.77,SSE,162,6.0,11.0,22,0.00,,,0.00,meteohub,2013-03-03 19:55:00,
2013-03-03 14:00:00,45.5,8.8,29.77,East,101,7.0,9.0,22,0.00,,,0.00,meteohub,2013-03-03 20:00:00,
2013-03-03 14:05:00,45.9,9.1,29.77,SSE,151,8.0,11.0,22,0.00,,,0.00,meteohub,2013-03-03 20:05:00,
2013-03-03 14:10:00,45.9,9.1,29.77,SSE,147,5.0,11.0,22,0.00,,,0.00,meteohub,2013-03-03 20:10:00,
2013-03-03 14:15:00,46.2,9.5,29.74,SE,136,8.0,11.0,22,0.00,,,0.00,meteohub,2013-03-03 20:15:00,
2013-03-03 14:20:00,46.2,9.5,29.74,East,99,4.0,11.0,22,0.00,,,0.00,meteohub,2013-03-03 20:20:00,
2013-03-03 14:25:00,46.4,9.7,29.74,SSE,148,8.0,11.0,22,0.00,,,0.00,meteohub,2013-03-03 20:25:00,
2013-03-03 14:30:00,46.2,9.5,29.74,SE,137,8.0,11.0,22,0.00,,,0.00,meteohub,2013-03-03 20:30:00,
2013-03-03 14:35:00,46.6,9.7,29.74,SSE,147,8.0,13.0,22,0.00,,,0.00,meteohub,2013-03-03 20:35:00,
2013-03-03 14:40:00,46.8,9.9,29.74,SE,144,8.0,13.0,22,0.00,,,0.00,meteohub,2013-03-03 20:40:00,
2013-03-03 14:46:00,47.1,10.2,29.74,ESE,111,6.0,13.0,22,0.00,,,0.00,meteohub,2013-03-03 20:46:00,
2013-03-03 14:51:00,46.9,10.0,29.74,SSE,147,8.0,11.0,22,0.00,,,0.00,meteohub,2013-03-03 20:51:00,
2013-03-03 14:56:00,46.8,9.9,29.74,SE,131,8.0,13.0,22,0.00,,,0.00,meteohub,2013-03-03 20:56:00,
2013-03-03 15:01:00,46.6,9.7,29.74,SE,133,5.0,14.0,22,0.00,,,0.00,meteohub,2013-03-03 21:01:00,
2013-03-03 15:06:00,46.9,10.0,29.74,SE,132,5.0,14.0,22,0.00,,,0.00,meteohub,2013-03-03 21:06:00,
2013-03-03 15:11:00,46.9,10.0,29.74,SE,139,8.0,11.0,22,0.00,,,0.00,meteohub,2013-03-03 21:11:00,
2013-03-03 15:16:00,46.8,9.9,29.74,East,90,6.0,12.0,22,0.00,,,0.00,meteohub,2013-03-03 21:16:00,
2013-03-03 15:21:00,46.8,9.9,29.74,SE,146,8.0,12.0,22,0.00,,,0.00,meteohub,2013-03-03 21:21:00,
2013-03-03 15:26:00,46.6,9.7,29.74,SSE,156,13.0,13.0,22,0.00,,,0.00,meteohub,2013-03-03 21:26:00,
2013-03-03 15:31:00,46.2,9.5,29.74,SE,142,9.0,13.0,22,0.00,,,0.00,meteohub,2013-03-03 21:31:00,
2013-03-03 15:37:00,46.2,9.5,29.74,SSE,160,8.0,13.0,22,0.00,,,0.00,meteohub,2013-03-03 21:37:00,
2013-03-03 15:42:00,46.2,9.5,29.74,ESE,114,4.0,13.0,22,0.00,,,0.00,meteohub,2013-03-03 21:42:00,
2013-03-03 15:47:00,46.2,9.5,29.74,SSE,150,6.0,11.0,22,0.00,,,0.00,meteohub,2013-03-03 21:47:00,
2013-03-03 15:52:00,46.0,9.3,29.74,ESE,102,6.0,11.0,22,0.00,,,0.00,meteohub,2013-03-03 21:52:00,
2013-03-03 15:57:00,46.0,9.3,29.74,SE,143,5.0,11.0,22,0.00,,,0.00,meteohub,2013-03-03 21:57:00,
2013-03-03 16:02:00,45.9,9.1,29.71,SE,143,4.0,9.0,22,0.00,,,0.00,meteohub,2013-03-03 22:02:00,
2013-03-03 16:07:00,45.5,8.8,29.71,SE,139,7.0,14.0,22,0.00,,,0.00,meteohub,2013-03-03 22:07:00,
2013-03-03 16:12:00,45.3,8.8,29.71,SE,141,5.0,14.0,22,0.00,,,0.00,meteohub,2013-03-03 22:12:00,
2013-03-03 16:18:00,44.8,8.2,29.71,SE,137,6.0,14.0,22,0.00,,,0.00,meteohub,2013-03-03 22:18:00,
2013-03-03 16:23:00,44.6,8.1,29.71,SSE,147,6.0,12.0,22,0.00,,,0.00,meteohub,2013-03-03 22:23:00,
2013-03-03 16:28:00,44.2,8.8,29.71,SSE,156,8.0,13.0,23,0.00,,,0.00,meteohub,2013-03-03 22:28:00,
2013-03-03 16:33:00,43.9,8.4,29.71,East,101,6.0,13.0,23,0.00,,,0.00,meteohub,2013-03-03 22:33:00,
2013-03-03 16:38:00,43.9,8.4,29.71,SE,133,7.0,13.0,23,0.00,,,0.00,meteohub,2013-03-03 22:38:00,
2013-03-03 16:43:00,43.7,8.2,29.71,SE,134,8.0,12.0,23,0.00,,,0.00,meteohub,2013-03-03 22:43:00,
2013-03-03 16:48:00,43.5,8.2,29.71,SSE,149,8.0,13.0,23,0.00,,,0.00,meteohub,2013-03-03 22:48:00,
2013-03-03 16:53:00,43.5,8.2,29.71,SE,139,5.0,13.0,23,0.00,,,0.00,meteohub,2013-03-03 22:53:00,
2013-03-03 16:58:00,43.5,8.2,29.71,SE,142,5.0,13.0,23,0.00,,,0.00,meteohub,2013-03-03 22:58:00,
2013-03-03 17:03:00,43.3,8.1,29.68,SE,129,9.0,15.0,23,0.00,,,0.00,meteohub,2013-03-03 23:03:00,
2013-03-03 17:09:00,43.3,8.1,29.68,SSE,147,11.0,15.0,23,0.00,,,0.00,meteohub,2013-03-03 23:09:00,
2013-03-03 17:14:00,43.2,7.9,29.68,SE,127,6.0,15.0,23,0.00,,,0.00,meteohub,2013-03-03 23:14:00,
2013-03-03 17:19:00,43.0,7.7,29.68,SSE,156,11.0,13.0,23,0.00,,,0.00,meteohub,2013-03-03 23:19:00,
2013-03-03 17:24:00,42.8,7.5,29.68,SE,141,11.0,13.0,23,0.00,,,0.00,meteohub,2013-03-03 23:24:00,
2013-03-03 17:29:00,42.4,7.2,29.68,SE,146,9.0,13.0,23,0.00,,,0.00,meteohub,2013-03-03 23:29:00,
2013-03-03 17:34:00,42.4,7.2,29.71,SSE,149,8.0,14.0,23,0.00,,,0.00,meteohub,2013-03-03 23:34:00,
2013-03-03 17:39:00,42.3,7.2,29.71,SE,137,8.0,14.0,23,0.00,,,0.00,meteohub,2013-03-03 23:39:00,
2013-03-03 17:44:00,42.3,7.2,29.71,SE,145,8.0,14.0,23,0.00,,,0.00,meteohub,2013-03-03 23:44:00,
2013-03-03 17:49:00,41.9,6.8,29.71,SE,132,5.0,12.0,23,0.00,,,0.00,meteohub,2013-03-03 23:49:00,
2013-03-03 17:54:00,41.7,6.6,29.71,SSE,153,14.0,14.0,23,0.00,,,0.00,meteohub,2013-03-03 23:54:00,
2013-03-03 17:59:00,41.5,9.1,29.71,SE,143,11.0,13.0,26,0.00,,,0.00,meteohub,2013-03-03 23:59:00,
2013-03-03 18:04:00,41.4,9.0,29.71,SE,140,6.0,14.0,26,0.00,,,0.00,meteohub,2013-03-04 00:04:00,
2013-03-03 18:10:00,41.2,9.0,29.71,SSE,155,11.0,14.0,26,0.00,,,0.00,meteohub,2013-03-04 00:10:00,
2013-03-03 18:15:00,41.0,8.8,29.71,SSE,166,8.0,12.0,26,0.00,,,0.00,meteohub,2013-03-04 00:15:00,
2013-03-03 18:20:00,40.8,8.6,29.71,SE,125,5.0,11.0,26,0.00,,,0.00,meteohub,2013-03-04 00:20:00,
2013-03-03 18:25:00,40.8,8.6,29.71,SSE,153,8.0,11.0,26,0.00,,,0.00,meteohub,2013-03-04 00:25:00,
2013-03-03 18:30:00,40.5,8.2,29.71,SSE,161,6.0,11.0,26,0.00,,,0.00,meteohub,2013-03-04 00:30:00,
2013-03-03 18:35:00,40.5,8.2,29.71,South,170,6.0,11.0,26,0.00,,,0.00,meteohub,2013-03-04 00:35:00,
2013-03-03 18:40:00,40.3,8.1,29.71,SSE,148,6.0,15.0,26,0.00,,,0.00,meteohub,2013-03-04 00:40:00,
2013-03-03 18:45:00,40.1,7.9,29.71,SSE,157,8.0,15.0,26,0.00,,,0.00,meteohub,2013-03-04 00:45:00,
2013-03-03 18:50:00,40.1,7.9,29.71,South,177,8.0,15.0,26,0.00,,,0.00,meteohub,2013-03-04 00:50:00,
2013-03-03 18:55:00,40.1,7.9,29.71,SE,133,8.0,11.0,26,0.00,,,0.00,meteohub,2013-03-04 00:55:00,
2013-03-03 19:00:00,39.9,7.9,29.71,SSE,153,8.0,11.0,26,0.00,,,0.00,meteohub,2013-03-04 01:00:00,
2013-03-03 19:05:00,39.9,7.9,29.71,SSE,161,11.0,15.0,26,0.00,,,0.00,meteohub,2013-03-04 01:05:00,
2013-03-03 19:11:00,39.9,7.9,29.71,SSE,168,11.0,15.0,26,0.00,,,0.00,meteohub,2013-03-04 01:11:00,
2013-03-03 19:16:00,39.9,7.9,29.71,SSE,168,8.0,15.0,26,0.00,,,0.00,meteohub,2013-03-04 01:16:00,
2013-03-03 19:21:00,39.7,7.7,29.71,South,178,8.0,13.0,26,0.00,,,0.00,meteohub,2013-03-04 01:21:00,
2013-03-03 19:26:00,39.7,7.7,29.71,South,170,10.0,13.0,26,0.00,,,0.00,meteohub,2013-03-04 01:26:00,
2013-03-03 19:31:00,39.7,7.7,29.71,SE,146,13.0,14.0,26,0.00,,,0.00,meteohub,2013-03-04 01:31:00,
2013-03-03 19:36:00,39.7,7.7,29.71,SSE,154,12.0,15.0,26,0.00,,,0.00,meteohub,2013-03-04 01:36:00,
2013-03-03 19:41:00,39.7,7.7,29.71,South,183,6.0,15.0,26,0.00,,,0.00,meteohub,2013-03-04 01:41:00,
2013-03-03 19:46:00,39.7,7.7,29.74,SSE,161,7.0,15.0,26,0.00,,,0.00,meteohub,2013-03-04 01:46:00,
2013-03-03 19:51:00,39.7,7.7,29.74,SE,144,9.0,12.0,26,0.00,,,0.00,meteohub,2013-03-04 01:51:00,
2013-03-03 19:56:00,39.7,7.7,29.74,SE,144,8.0,12.0,26,0.00,,,0.00,meteohub,2013-03-04 01:56:00,
2013-03-03 20:01:00,39.7,7.7,29.74,SSE,149,8.0,11.0,26,0.00,,,0.00,meteohub,2013-03-04 02:01:00,
2013-03-03 20:07:00,39.7,7.7,29.74,SE,135,6.0,11.0,26,0.00,,,0.00,meteohub,2013-03-04 02:07:00,
2013-03-03 20:12:00,39.6,7.5,29.74,SSE,166,8.0,11.0,26,0.00,,,0.00,meteohub,2013-03-04 02:12:00,
2013-03-03 20:17:00,39.6,7.5,29.71,SSE,161,6.0,11.0,26,0.00,,,0.00,meteohub,2013-03-04 02:17:00,
2013-03-03 20:22:00,39.4,7.3,29.71,SE,129,6.0,13.0,26,0.00,,,0.00,meteohub,2013-03-04 02:22:00,
2013-03-03 20:27:00,39.2,7.2,29.71,SSE,157,5.0,13.0,26,0.00,,,0.00,meteohub,2013-03-04 02:27:00,
2013-03-03 20:32:00,39.2,7.2,29.74,SSE,162,6.0,13.0,26,0.00,,,0.00,meteohub,2013-03-04 02:32:00,
2013-03-03 20:37:00,39.0,7.0,29.74,SSE,159,8.0,11.0,26,0.00,,,0.00,meteohub,2013-03-04 02:37:00,
2013-03-03 20:42:00,39.0,7.0,29.74,SSE,165,9.0,11.0,26,0.00,,,0.00,meteohub,2013-03-04 02:42:00,
2013-03-03 20:47:00,38.8,6.8,29.71,SE,143,8.0,13.0,26,0.00,,,0.00,meteohub,2013-03-04 02:47:00,
2013-03-03 20:52:00,38.8,6.8,29.71,SSE,165,6.0,13.0,26,0.00,,,0.00,meteohub,2013-03-04 02:52:00,
2013-03-03 20:57:00,38.7,6.8,29.71,SE,145,11.0,13.0,26,0.00,,,0.00,meteohub,2013-03-04 02:57:00,
2013-03-03 21:02:00,38.7,6.8,29.71,SSE,153,7.0,12.0,26,0.00,,,0.00,meteohub,2013-03-04 03:02:00,
2013-03-03 21:07:00,38.5,6.6,29.71,SSE,153,11.0,13.0,26,0.00,,,0.00,meteohub,2013-03-04 03:07:00,
2013-03-03 21:12:00,38.5,6.6,29.71,SSE,166,13.0,13.0,26,0.00,,,0.00,meteohub,2013-03-04 03:12:00,
2013-03-03 21:17:00,38.3,6.4,29.71,SE,144,8.0,15.0,26,0.00,,,0.00,meteohub,2013-03-04 03:17:00,
2013-03-03 21:22:00,38.3,6.4,29.71,SE,141,10.0,15.0,26,0.00,,,0.00,meteohub,2013-03-04 03:22:00,
2013-03-03 21:27:00,37.8,5.9,29.71,SSE,152,13.0,15.0,26,0.00,,,0.00,meteohub,2013-03-04 03:27:00,
2013-03-03 21:33:00,37.6,5.7,29.71,SE,130,3.0,15.0,26,0.00,,,0.00,meteohub,2013-03-04 03:33:00,
2013-03-03 21:38:00,37.2,7.9,29.71,ESE,123,6.0,15.0,29,0.00,,,0.00,meteohub,2013-03-04 03:38:00,
2013-03-03 21:43:00,37.0,7.7,29.71,SSE,149,9.0,15.0,29,0.00,,,0.00,meteohub,2013-03-04 03:43:00,
2013-03-03 21:48:00,36.9,7.5,29.71,SSE,159,8.0,16.0,29,0.00,,,0.00,meteohub,2013-03-04 03:48:00,
2013-03-03 21:53:00,36.7,7.3,29.71,SSE,156,8.0,16.0,29,0.00,,,0.00,meteohub,2013-03-04 03:53:00,
2013-03-03 21:58:00,36.5,7.2,29.71,SSE,150,9.0,15.0,29,0.00,,,0.00,meteohub,2013-03-04 03:58:00,
2013-03-03 22:03:00,36.3,7.2,29.71,SE,134,11.0,15.0,29,0.00,,,0.00,meteohub,2013-03-04 04:03:00,
2013-03-03 22:08:00,36.1,7.0,29.71,SSE,162,6.0,15.0,29,0.00,,,0.00,meteohub,2013-03-04 04:08:00,
2013-03-03 22:13:00,36.1,7.0,29.71,SSE,149,8.0,13.0,29,0.00,,,0.00,meteohub,2013-03-04 04:13:00,
2013-03-03 22:18:00,36.0,6.8,29.71,SSE,155,8.0,13.0,29,0.00,,,0.00,meteohub,2013-03-04 04:18:00,
2013-03-03 22:23:00,35.8,6.6,29.71,South,181,8.0,10.0,29,0.00,,,0.00,meteohub,2013-03-04 04:23:00,
2013-03-03 22:29:00,35.8,6.6,29.71,SE,142,6.0,12.0,29,0.00,,,0.00,meteohub,2013-03-04 04:29:00,
2013-03-03 22:34:00,35.6,6.4,29.71,SSE,157,8.0,12.0,29,0.00,,,0.00,meteohub,2013-03-04 04:34:00,
2013-03-03 22:39:00,35.6,6.4,29.71,SE,125,3.0,12.0,29,0.00,,,0.00,meteohub,2013-03-04 04:39:00,
2013-03-03 22:44:00,35.4,7.0,29.71,SSE,156,5.0,9.0,30,0.00,,,0.00,meteohub,2013-03-04 04:44:00,
2013-03-03 22:49:00,35.4,7.0,29.71,SSE,157,8.0,9.0,30,0.00,,,0.00,meteohub,2013-03-04 04:49:00,
2013-03-03 22:54:00,35.2,7.0,29.71,SSE,160,10.0,11.0,30,0.00,,,0.00,meteohub,2013-03-04 04:54:00,
2013-03-03 22:59:00,35.2,7.0,29.71,SSE,157,9.0,11.0,30,0.00,,,0.00,meteohub,2013-03-04 04:59:00,
2013-03-03 23:00:00,35.2,7.0,29.68,SE,143,6.0,11.0,30,0.00,,,0.00,meteohub,2013-03-04 05:00:00,
2013-03-03 23:01:00,35.1,6.8,29.68,SSE,166,13.0,13.0,30,0.00,,,0.00,meteohub,2013-03-04 05:01:00,
2013-03-03 23:02:00,35.1,6.8,29.68,SSE,154,8.0,12.0,30,0.00,,,0.00,meteohub,2013-03-04 05:02:00,
2013-03-03 23:07:00,35.1,6.8,29.68,SE,131,8.0,13.0,30,0.00,,,0.00,meteohub,2013-03-04 05:07:00,
2013-03-03 23:12:00,35.1,6.8,29.68,SSE,160,8.0,13.0,30,0.00,,,0.00,meteohub,2013-03-04 05:12:00,
2013-03-03 23:17:00,34.9,6.6,29.68,SSE,164,5.0,13.0,30,0.00,,,0.00,meteohub,2013-03-04 05:17:00,
2013-03-03 23:22:00,34.9,6.6,29.68,SSE,162,11.0,11.0,30,0.00,,,0.00,meteohub,2013-03-04 05:22:00,
2013-03-03 23:27:00,34.9,6.6,29.68,SE,140,6.0,11.0,30,0.00,,,0.00,meteohub,2013-03-04 05:27:00,
2013-03-03 23:33:00,34.7,6.4,29.68,SSE,167,6.0,11.0,30,0.00,,,0.00,meteohub,2013-03-04 05:33:00,
2013-03-03 23:38:00,34.7,6.4,29.68,SE,124,4.0,11.0,30,0.00,,,0.00,meteohub,2013-03-04 05:38:00,
2013-03-03 23:43:00,34.7,6.4,29.68,SSE,155,8.0,10.0,30,0.00,,,0.00,meteohub,2013-03-04 05:43:00,
2013-03-03 23:48:00,34.7,6.4,29.65,SSE,156,8.0,13.0,30,0.00,,,0.00,meteohub,2013-03-04 05:48:00,
2013-03-03 23:53:00,34.7,6.4,29.65,SE,142,6.0,13.0,30,0.00,,,0.00,meteohub,2013-03-04 05:53:00,
2013-03-03 23:58:00,34.5,6.3,29.65,SSE,151,6.0,13.0,30,0.00,,,0.00,meteohub,2013-03-04 05:58:00,